Milwaukee Timmerman, WI

8:15 PM CDT on July 20, 2017 (GMT -0500)
Timmerman

Weather History for KMWC - December, 2013

Change the Weather History Date:

Saturday, December 14, 2013

  Actual Average Record
Temperature  
Mean Temperature 22 °F -  
Max Temperature 26 °F 34 °F 59 °F (1975)
Min Temperature 19 °F 21 °F -8 °F (1985)
Degree Days  
Heating Degree Days 42    
Moisture  
Dew Point 21 °F    
Average Humidity 85    
Maximum Humidity 93    
Minimum Humidity 80    
Precipitation  
Precipitation 0.00 in - - ()
Sea Level Pressure  
Sea Level Pressure 30.05 in    
Wind  
Wind Speed 9 mph (NE)    
Max Wind Speed 14 mph    
Max Gust Speed 21 mph    
Visibility 4 miles    
Events Snow    
Averages and records for this station are not official NWS values.
T = Trace of Precipitation, MM = Missing Value Source: NWS Daily Summary

Daily Weather History Graph

Daily Weather History Graph

Search for Another Location

Airport or City:

Trip Planner

Search our weather history database for the weather conditions in past years. The results will help you decide how hot, cold, wet, or windy it might be!

Date:

Astronomy

Dec. 14, 2013 Rise Set
Actual Time 7:16 AM CST 4:17 PM CST
Civil Twilight 6:43 AM CST 4:50 PM CST
Nautical Twilight 6:07 AM CST 5:25 PM CST
Astronomical Twilight 5:33 AM CST 6:00 PM CST
Moon 2:41 PM CST (12/14) 4:33 AM CST (12/14)
Length of Visible Light 10h 06m
Length of Day
9h 01m
Waxing Gibbous, 94% of the Moon is Illuminated
Dec 14
Waxing Gibbous
Dec 17
Full
Dec 25
Last Quarter
Jan 1
New
Jan 7
First Quarter

Hourly Weather History & Observations

Time (CST) Temp. Windchill Dew Point Humidity Pressure Visibility Wind Dir Wind Speed Gust Speed Precip Events Conditions
12:15 AM 26.6 °F 19.1 °F 23.0 °F 86% 30.17 in 1.8 mi ENE 6.9 mph 17.3 mph N/A Snow Light Snow
12:35 AM 26.6 °F 16.8 °F 23.0 °F 86% 30.17 in 3.0 mi ENE 10.4 mph 16.1 mph N/A Snow Light Snow
12:55 AM 26.6 °F 16.8 °F 23.0 °F 86% 30.17 in 3.0 mi ENE 10.4 mph 16.1 mph N/A Snow Light Snow
1:15 AM 26.6 °F 18.2 °F 23.0 °F 86% 30.16 in 3.0 mi ENE 8.1 mph - N/A Snow Light Snow
1:35 AM 26.6 °F 15.7 °F 23.0 °F 86% 30.16 in 1.5 mi ENE 12.7 mph 17.3 mph N/A Snow Light Snow
1:55 AM 26.6 °F 16.2 °F 23.0 °F 86% 30.16 in 2.0 mi ENE 11.5 mph 18.4 mph N/A Snow Light Snow
2:15 AM 26.6 °F 16.2 °F 23.0 °F 86% 30.16 in 1.5 mi ENE 11.5 mph - N/A Snow Light Snow
2:35 AM 26.6 °F 15.2 °F 23.0 °F 86% 30.14 in 1.5 mi ENE 13.8 mph 19.6 mph N/A Snow Light Snow
2:55 AM 26.6 °F 16.2 °F 23.0 °F 86% 30.14 in 4.0 mi ENE 11.5 mph 18.4 mph N/A Snow Light Snow
3:15 AM 26.6 °F 16.2 °F 23.0 °F 86% 30.13 in 4.0 mi ENE 11.5 mph 17.3 mph N/A Snow Light Snow
3:35 AM 26.6 °F 15.2 °F 23.0 °F 86% 30.13 in 3.0 mi ENE 13.8 mph - N/A Snow Light Snow
3:55 AM 26.6 °F 15.7 °F 21.2 °F 80% 30.12 in 3.0 mi ENE 12.7 mph 18.4 mph N/A Snow Light Snow
4:15 AM 26.6 °F 17.5 °F 21.2 °F 80% 30.11 in 4.0 mi ENE 9.2 mph 20.7 mph N/A Snow Light Snow
4:35 AM 26.6 °F 17.5 °F 21.2 °F 80% 30.11 in 3.0 mi ENE 9.2 mph - N/A Snow Light Snow
4:55 AM 26.6 °F 16.8 °F 23.0 °F 86% 30.11 in 1.5 mi ENE 10.4 mph - N/A Snow Light Snow
5:15 AM 26.6 °F 17.5 °F 23.0 °F 86% 30.11 in 2.5 mi ENE 9.2 mph - N/A Snow Light Snow
5:35 AM 26.6 °F 17.5 °F 21.2 °F 80% 30.12 in 4.0 mi ENE 9.2 mph - N/A Snow Light Snow
5:55 AM 26.6 °F 17.5 °F 21.2 °F 80% 30.11 in 1.0 mi ENE 9.2 mph - N/A Snow Light Snow
6:15 AM 26.6 °F 17.5 °F 21.2 °F 80% 30.11 in 1.8 mi ENE 9.2 mph - N/A Snow Light Snow
6:35 AM 26.6 °F 18.2 °F 21.2 °F 80% 30.11 in 2.0 mi ENE 8.1 mph - N/A Snow Light Snow
6:45 AM 24.8 °F 15.3 °F 21.2 °F 86% 30.11 in 2.5 mi ENE 9.2 mph - N/A Snow Snow
7:45 AM 24.8 °F 14.6 °F 21.2 °F 86% 30.09 in 0.8 mi ENE 10.4 mph - N/A Snow Light Snow
8:45 AM 24.8 °F 16.9 °F 21.2 °F 86% 30.09 in 1.0 mi ENE 6.9 mph - N/A Snow Light Snow
9:45 AM 26.6 °F 17.5 °F 21.2 °F 80% 30.07 in 1.0 mi ENE 9.2 mph - N/A Snow Light Snow
10:50 AM 26.6 °F 18.2 °F 21.2 °F 80% 30.05 in 1.0 mi ENE 8.1 mph - N/A Snow Light Snow
11:45 AM 26.6 °F 17.5 °F 21.2 °F 80% 30.03 in 1.0 mi ENE 9.2 mph - N/A Snow Light Snow
12:50 PM 26.6 °F 18.2 °F 21.2 °F 80% 29.99 in 2.5 mi ENE 8.1 mph - N/A Snow Light Snow
1:45 PM 26.6 °F 18.2 °F 21.2 °F 80% 29.98 in 2.0 mi ENE 8.1 mph - N/A Snow Light Snow
2:45 PM 26.6 °F 20.0 °F 21.2 °F 80% 29.98 in 2.5 mi NNE 5.8 mph - N/A Snow Light Snow
3:45 PM 24.8 °F 16.1 °F 21.2 °F 86% 29.98 in 2.5 mi North 8.1 mph - N/A Snow Light Snow
4:45 PM 24.8 °F 16.1 °F 21.2 °F 86% 29.97 in 10.0 mi NNW 8.1 mph - N/A   Overcast
5:45 PM 24.8 °F 16.1 °F 19.4 °F 80% 29.97 in 10.0 mi NNW 8.1 mph - N/A   Overcast
6:45 PM 24.8 °F - 19.4 °F 80% 29.97 in 10.0 mi North - - N/A   Overcast
8:15 PM 21.2 °F 14.9 °F 17.6 °F 86% 29.96 in 7.0 mi WNW 4.6 mph - N/A   Overcast
8:35 PM 21.2 °F 13.6 °F 17.6 °F 86% 29.95 in 7.0 mi WNW 5.8 mph - N/A   Overcast
8:45 PM 19.4 °F 12.8 °F 17.6 °F 93% 29.95 in 5.0 mi West 4.6 mph - N/A   Overcast
8:55 PM 21.2 °F 12.6 °F 17.6 °F 86% 29.95 in 7.0 mi West 6.9 mph - N/A   Overcast
9:15 PM 21.2 °F 12.6 °F 17.6 °F 86% 29.95 in 7.0 mi West 6.9 mph - N/A   Overcast
9:35 PM 21.2 °F 12.6 °F 17.6 °F 86% 29.95 in 7.0 mi West 6.9 mph - N/A   Overcast
9:55 PM 21.2 °F 12.6 °F 17.6 °F 86% 29.94 in 7.0 mi West 6.9 mph - N/A   Overcast
10:15 PM 21.2 °F 13.6 °F 17.6 °F 86% 29.94 in 7.0 mi West 5.8 mph - N/A   Overcast
10:35 PM 21.2 °F 13.6 °F 17.6 °F 86% 29.93 in 7.0 mi WSW 5.8 mph - N/A   Overcast
10:55 PM 21.2 °F 13.6 °F 17.6 °F 86% 29.92 in 10.0 mi WSW 5.8 mph - N/A   Overcast
11:15 PM 19.4 °F 10.4 °F 17.6 °F 93% 29.92 in 7.0 mi WSW 6.9 mph - N/A Snow Light Snow
11:35 PM 19.4 °F 9.5 °F 17.6 °F 93% 29.91 in 5.0 mi WSW 8.1 mph - N/A Snow Light Snow
11:55 PM 19.4 °F 11.5 °F 17.6 °F 93% 29.91 in 5.0 mi West 5.8 mph - N/A Snow Light Snow